Location: Berg
(48.5667°N, 13.9833°E)
Time: 23:46:14
(UTC+00:00)

Cosmos 2360 - Pass Details

Date: 09 April 2020
Orbit: 847 x 855 km, 70.8° (Epoch: 24 May)

Event Time Altitude Azimuth Distance (km) Brightness Sun altitude
Rises 20:20:07 0° 333° (NNW) 3,423 8.6 -22.8°
Reaches altitude 10° 20:22:38 10° 338° (NNW) 2,484 7.6 -23.1°
Maximum altitude 20:28:14 56° 56° (ENE) 1,004 4.4 -23.8°
Enters shadow 20:29:13 50° 94° (E) 1,078 4.4 -23.9°
